Regional Weather Roundup
Issued by NWS

Home | Current Version | Previous Version | Graphics & Text | Print | Product List | Glossary On
Versions: 1 2 3 4 5 6 7 8 9 10 11 12 13 14 15 16 17 18 19 20 21 22 23 24 25 26 27 28 29 30 31 32 33 34 35 36 37 38 39 40 41 42 43 44 45 46 47 48 49 50
000
ASUS43 KIND 040359
RWRIN

WEATHER ROUNDUP FOR INDIANA
NATIONAL WEATHER SERVICE INDIANAPOLIS IN
1100 PM EST SAT DEC 03 2016

NOTE: "FAIR" INDICATES FEW OR NO CLOUDS BELOW 12,000 FEET WITH NO
SIGNIFICANT WEATHER AND/OR OBSTRUCTIONS TO VISIBILITY.

* - STATION DOES NOT REPORT WEATHER SUCH AS PRECIPITATION OR FOG.

+ - STATION NOT QUALITY CONTROLLED BY THE NATIONAL WEATHER SERVICE.
    USE DATA WITH CAUTION...ESPECIALLY DEWPOINT AND RELATIVE
    HUMIDITY OBSERVATIONS.

INZ001>003-010>013-019-020-040500-
NORTHWEST INDIANA

CITY           SKY/WX    TMP DP  RH WIND       PRES   REMARKS
GARY /AIRPORT/ PTCLDY    32  28  84 CALM      30.30S
KNOX *+        MOCLDY    32  12  43 CALM      30.28F
LA PORTE +     CLOUDY    33  32  96 CALM      30.28F
MONTICELLO +   CLOUDY    33  23  65 CALM      30.28S
RENSSELAER +     N/A     32  30  93 CALM      30.30S

$$

LMZ046-743>745-040500-
SOUTHERN LAKE MICHIGAN

STATION/POSITION TIME  TEMP    WIND        PRES    WAVE
                       AIR SEA DIR/SP/G            HT
                 (UTC) (F)     (DEG/KT/KT) (MB)    (FT)
BURNS HARBOR     0340   33     190/  6/  9 1026.1F
MICHIGAN CITY    0330   33     150/  7/  8   N/A

$$

INZ004-005-014>016-021>024-040500-
NORTH CENTRAL INDIANA

CITY           SKY/WX    TMP DP  RH WIND       PRES   REMARKS
GOSHEN         CLOUDY    32  25  75 SW3       30.28F
SOUTH BEND     CLOUDY    32  25  75 SW5       30.29F WCI  27
WARSAW +       CLOUDY    32  23  69 SW3       30.28F

$$

INZ006>009-017-018-025>027-040500-
NORTHEAST INDIANA

CITY           SKY/WX    TMP DP  RH WIND       PRES   REMARKS
ANGOLA *+      CLOUDY    34  27  75 CALM      30.26F
FORT WAYNE     CLOUDY    32  25  75 N3        30.28F
KENDALLVILLE + CLOUDY    33  27  78 CALM      30.27F

$$

INZ028-029-035-036-043>045-051>053-040500-
WEST CENTRAL INDIANA

CITY           SKY/WX    TMP DP  RH WIND       PRES   REMARKS
CRAWFORDSVL +  PTCLDY    31  28  90 CALM      30.27F
GREENCASTLE +  PTCLDY    32  30  93 CALM      30.28F
LAFAYETTE      CLOUDY    33  28  81 CALM      30.28F
TERRE HAUTE    PTCLDY    33  28  81 E3        30.29F

$$

INZ030>032-037>040-046>048-054>057-064-065-040500-
CENTRAL INDIANA

CITY           SKY/WX    TMP DP  RH WIND       PRES   REMARKS
FRANKFORT +    CLOUDY    35  29  79 CALM      30.29F
GREENWOOD *+   CLOUDY    33  29  85 CALM      30.29S
INDIANAPOLIS   CLOUDY    33  27  78 E3        30.28F
-EAGLE CREEK   PTCLDY    32  26  78 CALM      30.27F
KOKOMO +       CLOUDY    33  27  78 NW3       30.29F
SHELBYVILLE    CLOUDY    33  27  78 E3        30.28F
ZIONSVILLE +   CLOUDY    30  28  94 CALM      30.28F

$$

INZ033-034-041-042-049-050-058-059-040500-
EAST CENTRAL INDIANA

CITY           SKY/WX    TMP DP  RH WIND       PRES   REMARKS
MUNCIE         MOCLDY    33  27  78 CALM      30.27F

$$

INZ060-061-067>069-081>083-085>088-040500-
SOUTHWEST INDIANA

CITY           SKY/WX    TMP DP  RH WIND       PRES   REMARKS
EVANSVILLE     CLOUDY    40  31  70 E5        30.26F
HUNTINGBURG *+ CLOUDY    38  31  76 CALM      30.26F
WASHINGTON +   CLOUDY    37  33  88 CALM      30.27F

$$

INZ062-063-066-070>080-084-089>092-040500-
SOUTH CENTRAL AND SOUTHEAST INDIANA

CITY           SKY/WX    TMP DP  RH WIND       PRES   REMARKS
BLOOMINGTON    CLOUDY    34  28  79 CALM      30.27F
MADISON *+     CLOUDY    36  30  80 CALM      30.30S
SEYMOUR +      CLOUDY    36  30  80 CALM      30.29F

$$




USA.gov is the U.S. government's official web portal to all federal, state and local government web resources and services.